EW8085 Weather Reports


Display with metric or nautical units.
time (UTC)temp
F
wind
direction
speed
MPH
gust
MPH
rain 1hr
in
rain 24hr
in
rain mn
in
humidity
%
barometer
mb
20260510182516 88 282 4.0 15.0 0.00 0.02 0.01 72 1014.2
20260510182008 89 284 6.0 15.0 0.00 0.02 0.01 71 1014.2
20260510181508 89 200 4.0 15.0 0.00 0.02 0.01 72 1014.3
20260510181010 89 304 4.0 14.0 0.00 0.02 0.01 70 1014.3
20260510180507 88 340 6.0 14.0 0.00 0.02 0.01 70 1014.4
20260510180008 89 274 5.0 13.0 0.00 0.02 0.01 70 1014.4
20260510175507 90 313 3.0 11.0 0.00 0.02 0.01 69 1014.4
20260510175006 90 229 4.0 12.0 0.00 0.02 0.01 69 1014.4
20260510174505 90 239 3.0 15.0 0.00 0.02 0.01 70 1014.4
20260510174006 90 305 5.0 14.0 0.00 0.02 0.01 70 1014.6
20260510173505 90 209 6.0 14.0 0.00 0.02 0.01 72 1014.6
20260510173005 89 324 3.0 15.0 0.00 0.02 0.01 72 1014.7
20260510172507 89 313 7.0 18.0 0.00 0.02 0.01 73 1014.6
20260510172004 89 294 9.0 18.0 0.00 0.02 0.01 72 1014.7
20260510171506 89 324 8.0 14.0 0.00 0.02 0.01 71 1014.7
20260510171004 90 298 5.0 15.0 0.00 0.02 0.01 68 1014.8
20260510170505 90 294 6.0 15.0 0.00 0.02 0.01 68 1014.7
20260510170002 90 302 5.0 13.0 0.00 0.02 0.01 69 1014.8
20260510165505 90 326 5.0 13.0 0.00 0.02 0.01 67 1014.7
20260510165001 90 188 3.0 13.0 0.00 0.02 0.01 67 1014.9
20260510164506 89 303 6.0 15.0 0.00 0.02 0.01 62 1014.8
20260510164002 90 315 7.0 15.0 0.00 0.02 0.01 61 1014.8
20260510163501 90 245 3.0 11.0 0.00 0.02 0.01 65 1014.7
20260510163157 90 233 3.0 11.0 0.00 0.02 0.01 67 1014.8
20260510162601 90 290 4.0 13.0 0.00 0.02 0.01 66 1014.8
20260510162100 90 307 5.0 13.0 0.00 0.02 0.01 68 1014.7
20260510161558 90 273 3.0 10.0 0.00 0.02 0.01 65 1014.8
20260510161058 89 219 2.0 5.0 0.00 0.02 0.01 67 1014.9
20260510160557 89 221 1.0 9.0 0.00 0.02 0.01 65 1014.9
20260510160100 89 277 3.0 10.0 0.00 0.02 0.01 65 1014.9
20260510155557 89 266 5.0 10.0 0.00 0.02 0.01 65 1015.0
20260510155056 90 256 2.0 8.0 0.00 0.02 0.01 65 1015.0
20260510154556 90 215 1.0 6.0 0.00 0.02 0.01 61 1015.0
20260510154055 90 187 2.0 8.0 0.00 0.02 0.01 63 1014.9
20260510153555 90 208 3.0 8.0 0.00 0.02 0.01 61 1014.9
20260510153103 90 215 3.0 8.0 0.00 0.02 0.01 63 1014.8
20260510152553 89 193 1.0 8.0 0.00 0.02 0.01 65 1014.8
20260510152053 88 260 2.0 9.0 0.00 0.02 0.01 65 1014.8
20260510151618 88 192 3.0 8.0 0.00 0.02 0.01 65 1014.9
20260510151051 88 207 0.0 8.0 0.00 0.02 0.01 68 1014.8
20260510150551 88 235 3.0 8.0 0.00 0.02 0.01 67 1014.9
20260510150057 88 187 2.0 6.0 0.00 0.02 0.01 69 1014.9
20260510145547 88 167 1.0 7.0 0.00 0.02 0.01 69 1014.8
20260510145046 87 153 3.0 8.0 0.00 0.02 0.01 70 1014.8
20260510144556 87 175 3.0 8.0 0.00 0.02 0.01 70 1014.8
20260510144047 87 196 2.0 7.0 0.00 0.02 0.01 70 1014.9
20260510143546 87 249 2.0 9.0 0.00 0.02 0.01 71 1015.0
20260510143058 86 209 2.0 9.0 0.00 0.02 0.01 72 1014.9
20260510142543 86 227 3.0 9.0 0.00 0.02 0.01 73 1014.9
20260510142042 85 186 4.0 9.0 0.00 0.02 0.01 74 1014.7
20260510141540 85 194 3.0 7.0 0.00 0.02 0.01 75 1014.7
20260510141039 84 200 1.0 5.0 0.00 0.02 0.01 76 1014.8
20260510140540 84 160 3.0 8.0 0.00 0.02 0.01 77 1014.7
20260510140036 83 192 3.0 8.0 0.00 0.02 0.01 78 1014.6
20260510135535 83 226 3.0 7.0 0.00 0.02 0.01 78 1014.6
20260510135035 82 121 3.0 9.0 0.00 0.02 0.01 79 1014.5
20260510134534 82 146 3.0 9.0 0.00 0.02 0.01 78 1014.5
20260510134033 82 192 2.0 10.0 0.00 0.02 0.01 79 1014.6
20260510133533 82 189 4.0 10.0 0.00 0.02 0.01 79 1014.7
20260510133031 82 158 4.0 9.0 0.00 0.02 0.01 80 1014.7
20260510132531 81 180 3.0 9.0 0.00 0.02 0.01 80 1014.6
20260510132029 81 130 3.0 9.0 0.00 0.02 0.01 81 1014.6
20260510131529 80 120 4.0 9.0 0.00 0.02 0.01 82 1014.4
20260510131026 80 151 3.0 8.0 0.00 0.02 0.01 82 1014.5
20260510130525 79 136 3.0 8.0 0.00 0.02 0.01 83 1014.5
20260510130023 79 135 1.0 7.0 0.00 0.02 0.01 84 1014.4
20260510125522 78 132 2.0 6.0 0.00 0.02 0.01 84 1014.4
20260510125021 78 161 3.0 8.0 0.00 0.02 0.01 85 1014.4
20260510124530 78 137 2.0 7.0 0.00 0.02 0.01 85 1014.4
20260510124022 78 113 4.0 7.0 0.00 0.02 0.01 86 1014.3
20260510123521 77 138 1.0 9.0 0.00 0.02 0.01 87 1014.3
20260510123019 77 126 4.0 9.0 0.00 0.02 0.01 88 1014.2
20260510122519 76 157 4.0 8.0 0.00 0.02 0.01 89 1014.2
20260510122020 76 117 1.0 7.0 0.00 0.02 0.01 90 1014.1
20260510121519 76 166 2.0 7.0 0.00 0.02 0.01 90 1014.1
20260510121017 75 140 1.0 7.0 0.00 0.02 0.01 91 1014.0
20260510120517 75 123 1.0 7.0 0.00 0.02 0.01 91 1013.9
20260510120015 75 152 3.0 7.0 0.00 0.02 0.01 91 1013.9
20260510115514 75 123 2.0 7.0 0.00 0.02 0.01 92 1013.8
20260510115015 75 138 3.0 7.0 0.00 0.02 0.01 92 1013.7
20260510114514 74 147 2.0 6.0 0.00 0.02 0.01 92 1013.7
20260510114013 74 124 1.0 5.0 0.00 0.02 0.01 92 1013.6
20260510113512 74 138 2.0 5.0 0.00 0.02 0.01 92 1013.5
20260510113012 74 136 2.0 7.0 0.00 0.02 0.01 92 1013.5
20260510112514 74 138 2.0 7.0 0.00 0.02 0.01 92 1013.4
20260510112113 74 132 2.0 5.0 0.00 0.02 0.01 92 1013.4
20260510111513 74 157 1.0 5.0 0.00 0.02 0.01 92 1013.2
20260510111012 74 141 0.0 3.0 0.00 0.02 0.01 92 1013.1
20260510110512 74 135 1.0 4.0 0.00 0.02 0.01 92 1013.1
20260510110011 74 129 1.0 4.0 0.00 0.02 0.01 92 1012.9
20260510105511 74 128 2.0 4.0 0.00 0.02 0.01 92 1012.7
20260510105012 74 125 1.0 5.0 0.00 0.02 0.01 91 1012.8
20260510104510 74 125 1.0 5.0 0.00 0.02 0.01 91 1012.7
20260510104011 74 141 1.0 3.0 0.00 0.02 0.01 91 1012.7
20260510103514 74 142 1.0 3.0 0.00 0.02 0.01 91 1012.8
20260510103010 74 142 0.0 0.0 0.00 0.02 0.01 91 1012.8
20260510102510 74 142 0.0 0.0 0.00 0.02 0.01 91 1012.8
20260510102010 74 142 0.0 0.0 0.00 0.02 0.01 91 1012.7
20260510101508 74 142 0.0 0.0 0.00 0.02 0.01 91 1012.6
20260510101009 74 142 0.0 3.0 0.00 0.02 0.01 91 1012.5
20260510100508 74 142 0.0 4.0 0.00 0.02 0.01 91 1012.3
20260510100015 74 142 1.0 4.0 0.00 0.02 0.01 91 1012.1
20260510095508 74 119 1.0 3.0 0.00 0.02 0.01 90 1012.2
20260510095007 74 117 1.0 3.0 0.00 0.02 0.01 90 1012.3
20260510094507 74 117 0.0 3.0 0.00 0.02 0.01 90 1012.2
20260510094007 74 117 0.0 3.0 0.00 0.02 0.01 90 1012.2
20260510093507 74 116 0.0 2.0 0.00 0.02 0.01 90 1012.2
20260510093007 74 116 0.0 3.0 0.00 0.02 0.01 90 1012.1
20260510092507 74 116 0.0 3.0 0.00 0.02 0.01 90 1011.9
20260510092006 74 115 0.0 3.0 0.00 0.02 0.01 90 1011.8
20260510091506 74 115 1.0 3.0 0.00 0.02 0.01 90 1011.9
20260510091005 75 115 1.0 3.0 0.00 0.02 0.01 90 1011.8
20260510090506 75 115 0.0 2.0 0.00 0.02 0.01 89 1011.8
20260510090006 75 115 0.0 1.0 0.00 0.02 0.01 89 1011.8
20260510085505 75 115 0.0 4.0 0.00 0.02 0.01 89 1011.7
20260510085004 75 115 1.0 4.0 0.00 0.02 0.01 89 1011.6
20260510084504 75 127 0.0 3.0 0.00 0.02 0.01 89 1011.6
20260510084003 75 130 0.0 3.0 0.00 0.02 0.01 89 1011.5
20260510083503 75 130 0.0 3.0 0.00 0.02 0.01 89 1011.5
20260510083012 75 130 1.0 3.0 0.00 0.02 0.01 89 1011.4
20260510082504 75 130 1.0 3.0 0.00 0.02 0.01 89 1011.5
20260510082004 75 130 1.0 3.0 0.00 0.02 0.01 89 1011.5
20260510081503 75 130 1.0 5.0 0.00 0.02 0.01 89 1011.4
20260510081002 75 130 1.0 5.0 0.00 0.02 0.01 89 1011.3
20260510080502 75 134 2.0 6.0 0.00 0.02 0.01 89 1011.3
20260510080106 75 123 2.0 7.0 0.00 0.02 0.01 89 1011.3
20260510075559 75 124 1.0 7.0 0.00 0.02 0.01 89 1011.3
20260510075100 75 101 1.0 5.0 0.00 0.02 0.01 88 1011.4
20260510074600 75 107 2.0 5.0 0.00 0.02 0.01 88 1011.4
20260510074058 75 121 1.0 5.0 0.00 0.02 0.01 88 1011.5
20260510073557 75 132 3.0 5.0 0.00 0.02 0.01 88 1011.5
20260510073105 76 142 1.0 4.0 0.00 0.02 0.01 88 1011.7
20260510072557 76 142 1.0 7.0 0.00 0.02 0.01 88 1011.7
20260510072059 76 109 3.0 7.0 0.00 0.02 0.01 89 1011.7
20260510071556 76 117 2.0 8.0 0.00 0.02 0.01 89 1011.7
20260510071054 76 111 4.0 8.0 0.00 0.02 0.01 89 1011.8
20260510070554 76 126 2.0 8.0 0.00 0.02 0.01 89 1011.8
20260510070055 76 130 3.0 8.0 0.00 0.02 0.01 89 1011.9
20260510065553 76 131 2.0 5.0 0.00 0.02 0.01 89 1012.1
20260510065053 75 125 1.0 6.0 0.00 0.02 0.01 89 1012.0
20260510064553 75 142 1.0 6.0 0.00 0.02 0.01 90 1012.1
20260510064050 75 123 2.0 7.0 0.00 0.02 0.01 90 1012.2
20260510063552 75 131 2.0 6.0 0.00 0.02 0.01 90 1012.3
20260510063051 75 121 2.0 6.0 0.00 0.02 0.01 90 1012.3
20260510062550 75 97 1.0 2.0 0.01 0.02 0.01 91 1012.4
20260510062050 75 97 0.0 4.0 0.01 0.02 0.01 91 1012.3
20260510061551 75 97 1.0 4.0 0.01 0.02 0.01 91 1012.4
20260510061051 75 111 1.0 4.0 0.01 0.02 0.01 91 1012.4
20260510060550 75 13 0.0 0.0 0.01 0.02 0.01 91 1012.4
20260510060050 75 13 0.0 0.0 0.01 0.02 0.01 90 1012.5
20260510055546 76 13 0.0 0.0 0.01 0.02 0.01 90 1012.6
20260510055048 76 13 0.0 0.0 0.01 0.02 0.01 90 1012.7
20260510054545 76 13 0.0 0.0 0.01 0.02 0.01 90 1012.8
20260510054044 76 13 0.0 0.0 0.01 0.02 0.01 90 1012.8
20260510053542 76 13 0.0 0.0 0.01 0.02 0.01 90 1012.9
20260510053042 76 13 0.0 0.0 0.01 0.02 0.01 90 1013.0
20260510052541 76 13 0.0 0.0 0.00 0.01 0.00 90 1013.1
20260510052044 76 13 0.0 0.0 0.00 0.01 0.00 90 1013.1
20260510051546 76 13 0.0 0.0 0.00 0.01 0.00 90 1013.1
20260510051041 76 13 0.0 0.0 0.00 0.01 0.00 90 1013.2
20260510050540 76 13 0.0 0.0 0.00 0.01 0.00 90 1013.1
20260510050040 76 13 0.0 2.0 0.00 0.01 0.00 90 1013.1
20260510045539 76 13 0.0 2.0 0.00 0.01 0.00 90 1013.1
20260510045039 77 9 0.0 3.0 0.00 0.01 0.00 90 1013.1
20260510044537 77 9 0.0 3.0 0.00 0.01 0.00 90 1013.2
20260510044035 77 5 0.0 1.0 0.00 0.01 0.00 90 1013.2
20260510043535 77 5 0.0 1.0 0.00 0.01 0.00 90 1013.3
20260510043034 77 5 0.0 1.0 0.00 0.01 0.00 90 1013.3
20260510042534 77 5 0.0 3.0 0.00 0.01 0.00 90 1013.4
20260510042032 78 5 1.0 3.0 0.00 0.01 0.00 90 1013.4
20260510041532 78 155 0.0 0.0 0.00 0.01 0.00 90 1013.5
20260510041031 78 155 0.0 0.0 0.00 0.01 0.00 90 1013.5
20260510040531 78 156 0.0 0.0 0.00 0.01 0.00 90 1013.5
20260510040030 78 156 0.0 0.0 0.00 0.01 0.00 90 1013.4
20260510035529 78 156 0.0 0.0 0.01 0.01 0.01 89 1013.4
20260510035029 78 156 0.0 0.0 0.01 0.01 0.01 89 1013.4
20260510034531 78 156 0.0 0.0 0.01 0.01 0.01 88 1013.5
20260510034029 78 156 0.0 0.0 0.01 0.01 0.01 88 1013.3
20260510033528 78 156 0.0 0.0 0.01 0.01 0.01 87 1013.2
20260510033028 79 156 0.0 0.0 0.01 0.01 0.01 87 1013.1
20260510032528 79 156 0.0 0.0 0.01 0.01 0.01 87 1013.1
20260510032028 79 156 0.0 0.0 0.01 0.01 0.01 87 1013.0
20260510031529 79 156 0.0 0.0 0.01 0.01 0.01 86 1013.0
20260510031031 79 156 0.0 0.0 0.01 0.01 0.01 86 1013.1
20260510030532 79 156 0.0 0.0 0.01 0.01 0.01 86 1013.1
20260510030027 79 156 0.0 0.0 0.01 0.01 0.01 85 1013.1
20260510025529 79 156 0.0 0.0 0.00 0.00 0.00 85 1013.0
20260510025027 79 156 0.0 0.0 0.00 0.00 0.00 85 1013.0
20260510024529 79 156 0.0 0.0 0.00 0.00 0.00 84 1012.9
20260510024027 79 156 0.0 0.0 0.00 0.00 0.00 84 1013.0
20260510023529 79 156 0.0 0.0 0.00 0.00 0.00 84 1012.9
20260510023027 79 156 0.0 4.0 0.00 0.00 0.00 83 1013.0
20260510022526 79 178 0.0 4.0 0.00 0.00 0.00 83 1012.9
20260510022027 79 280 0.0 1.0 0.00 0.00 0.00 82 1012.9
20260510021527 79 280 0.0 1.0 0.00 0.00 0.00 82 1013.0
20260510021026 79 280 0.0 0.0 0.00 0.00 0.00 82 1012.8
20260510020530 79 280 0.0 0.0 0.00 0.00 0.00 82 1012.8
20260510020025 79 280 0.0 0.0 0.00 0.00 0.00 81 1012.7
20260510015525 79 280 0.0 0.0 0.00 0.00 0.00 81 1012.5
20260510015025 79 280 0.0 0.0 0.00 0.00 0.00 81 1012.6
20260510014526 79 280 0.0 1.0 0.00 0.00 0.00 81 1012.4
20260510014025 79 280 0.0 1.0 0.00 0.00 0.00 81 1012.4
20260510013526 80 280 0.0 1.0 0.00 0.00 0.00 81 1012.3
20260510013026 80 280 0.0 1.0 0.00 0.00 0.00 81 1012.5
20260510012525 80 280 0.0 1.0 0.00 0.00 0.00 80 1012.3
20260510012026 80 280 0.0 1.0 0.00 0.00 0.00 80 1012.2
20260510011537 80 280 0.0 1.0 0.00 0.00 0.00 80 1012.2
20260510011024 80 279 0.0 1.0 0.00 0.00 0.00 80 1012.2
20260510010525 80 279 0.0 1.0 0.00 0.00 0.00 80 1012.1
20260510010023 80 279 0.0 2.0 0.00 0.00 0.00 80 1012.0
20260510005524 80 279 0.0 3.0 0.00 0.00 0.00 80 1012.0
20260510005027 80 279 0.0 4.0 0.00 0.00 0.00 80 1011.9
20260510004524 80 267 0.0 3.0 0.00 0.00 0.00 80 1012.0
20260510004023 80 259 1.0 4.0 0.00 0.00 0.00 80 1012.0
20260510003523 80 259 1.0 4.0 0.00 0.00 0.00 79 1011.9
20260510003025 80 284 1.0 5.0 0.00 0.00 0.00 79 1011.8
20260510002524 81 298 2.0 5.0 0.00 0.00 0.00 79 1011.8
20260510002023 81 309 1.0 8.0 0.00 0.00 0.00 79 1011.7
20260510001526 81 297 1.0 8.0 0.00 0.00 0.00 79 1011.7
20260510001022 81 268 3.0 7.0 0.00 0.00 0.00 78 1011.7
20260510000522 81 296 2.0 5.0 0.00 0.00 0.00 78 1011.7
20260510000039 81 277 2.0 5.0 0.00 0.00 0.00 77 1011.8
20260509235523 81 284 1.0 7.0 0.00 0.00 0.00 77 1011.5
20260509235024 81 299 1.0 7.0 0.00 0.00 0.00 77 1011.4
20260509234527 81 280 2.0 8.0 0.00 0.00 0.00 77 1011.3
20260509234022 82 296 2.0 8.0 0.00 0.00 0.00 76 1011.4
20260509233524 82 238 1.0 7.0 0.00 0.00 0.00 75 1011.5
20260509233021 82 306 3.0 10.0 0.00 0.00 0.00 75 1011.5
20260509232523 82 293 5.0 11.0 0.00 0.00 0.00 75 1011.3
20260509232021 82 270 4.0 11.0 0.00 0.00 0.00 74 1011.3
20260509231520 82 280 2.0 13.0 0.00 0.00 0.00 74 1011.3
20260509231020 82 315 7.0 13.0 0.00 0.00 0.00 73 1011.2
20260509230520 83 296 3.0 11.0 0.00 0.00 0.00 73 1011.1
20260509230020 83 284 5.0 10.0 0.00 0.00 0.00 73 1011.2
20260509225520 83 301 3.0 11.0 0.00 0.00 0.00 72 1011.1
20260509225019 83 284 6.0 13.0 0.00 0.00 0.00 71 1011.1
20260509224519 84 287 4.0 14.0 0.00 0.00 0.00 70 1011.0
20260509224019 84 309 7.0 14.0 0.00 0.00 0.00 69 1011.0
20260509223519 85 292 2.0 11.0 0.00 0.00 0.00 68 1010.9
20260509223018 85 294 4.0 11.0 0.00 0.00 0.00 66 1010.9
20260509222519 86 296 2.0 12.0 0.00 0.00 0.00 65 1010.8
20260509222018 86 300 1.0 8.0 0.00 0.00 0.00 62 1010.8
20260509221519 86 177 3.0 8.0 0.00 0.00 0.00 62 1010.7
20260509221019 86 307 2.0 10.0 0.00 0.00 0.00 61 1010.6
20260509220518 87 304 3.0 9.0 0.00 0.00 0.00 60 1010.6
20260509220020 87 312 1.0 8.0 0.00 0.00 0.00 61 1010.6
20260509215518 87 199 2.0 8.0 0.00 0.00 0.00 60 1010.6
20260509215020 87 205 2.0 8.0 0.00 0.00 0.00 59 1010.4
20260509214526 87 290 2.0 7.0 0.00 0.00 0.00 59 1010.4
20260509214017 88 284 2.0 10.0 0.00 0.00 0.00 58 1010.4
20260509213517 88 278 3.0 10.0 0.00 0.00 0.00 56 1010.4
20260509213018 89 203 3.0 11.0 0.00 0.00 0.00 54 1010.3
20260509212516 90 219 5.0 11.0 0.00 0.00 0.00 53 1010.4
20260509212017 90 205 3.0 11.0 0.00 0.00 0.00 50 1010.2
20260509211519 91 212 5.0 13.0 0.00 0.00 0.00 49 1010.2
20260509211017 92 316 3.0 13.0 0.00 0.00 0.00 47 1010.2
20260509210517 92 206 2.0 9.0 0.00 0.00 0.00 48 1010.1
20260509210016 93 240 3.0 8.0 0.00 0.00 0.00 48 1010.0
20260509205516 93 257 2.0 12.0 0.00 0.00 0.00 49 1009.9
20260509205015 92 184 3.0 11.0 0.00 0.00 0.00 49 1010.0
20260509204523 92 250 3.0 10.0 0.00 0.00 0.00 49 1009.9
20260509204021 92 234 2.0 13.0 0.00 0.00 0.00 49 1009.9
20260509203514 92 238 4.0 14.0 0.00 0.00 0.00 49 1010.0
20260509203014 92 275 4.0 14.0 0.00 0.00 0.00 50 1010.0
20260509202513 92 206 4.0 13.0 0.00 0.00 0.00 50 1009.8
20260509202014 92 284 4.0 11.0 0.00 0.00 0.00 51 1009.9
20260509201512 93 215 4.0 10.0 0.00 0.00 0.00 51 1010.0
20260509201014 93 243 5.0 10.0 0.00 0.00 0.00 52 1010.1
20260509200516 92 186 2.0 12.0 0.00 0.00 0.00 54 1010.1
20260509200013 91 246 5.0 11.0 0.00 0.00 0.00 54 1010.1
20260509195511 92 168 3.0 11.0 0.00 0.00 0.00 53 1010.0
20260509195012 92 187 4.0 11.0 0.00 0.00 0.00 53 1010.1
20260509194511 92 221 5.0 8.0 0.00 0.00 0.00 53 1010.1
20260509194011 92 157 3.0 11.0 0.00 0.00 0.00 53 1010.1
20260509193510 91 241 3.0 15.0 0.00 0.00 0.00 52 1010.2
20260509193009 91 46 6.0 15.0 0.00 0.00 0.00 51 1010.3
20260509192508 92 196 6.0 15.0 0.00 0.00 0.00 51 1010.3
20260509192008 92 246 6.0 14.0 0.00 0.00 0.00 51 1010.4
20260509191512 92 163 6.0 11.0 0.00 0.00 0.00 50 1010.5
20260509191008 92 223 4.0 10.0 0.00 0.00 0.00 52 1010.4
20260509190507 92 268 5.0 11.0 0.00 0.00 0.00 52 1010.3
20260509190006 92 277 4.0 10.0 0.00 0.00 0.00 52 1010.6
20260509185504 92 192 4.0 11.0 0.00 0.00 0.00 52 1010.7
20260509185007 92 233 5.0 14.0 0.00 0.00 0.00 53 1010.7
20260509184504 93 277 6.0 14.0 0.00 0.00 0.00 52 1010.9
20260509184003 93 200 3.0 11.0 0.00 0.00 0.00 52 1010.9
20260509183503 93 296 3.0 12.0 0.00 0.00 0.00 52 1010.9
20260509183009 93 236 4.0 12.0 0.00 0.00 0.00 52 1011.0